XNO1R15 OERK-OMDB

Flight info

Callsign XNO1R15
Flight time 1h 33m
Altitude 41000
Route OTALI M440 SITER DCT KUTNA DCT KATIT DCT PEKEM M628 RIGIL G783 ELUDA/N0506F350 G783 ASPED Q308 KIPOK Q568 IMPED
Aircraft A359/H-SDE2E3GHIJ3J4J5LM1ORWXY/LB1D1

Departure

Time 2026-05-05 18:30
Airport King Khalid International Airport (OERK)

Arrival

Time 2026-05-05 20:04
Airport Dubai International Airport (OMDB)
Time Latitude Longitude Altitude Speed Heading
2026-05-05 17:54 24.95940 46.70524 2036 ft 0 kts 234°
2026-05-05 18:18 24.95951 46.70541 2045 ft 4 kts 236°
2026-05-05 18:19 24.95965 46.70565 2045 ft 4 kts 238°
2026-05-05 18:19 24.95979 46.70589 2040 ft 3 kts 234°
2026-05-05 18:19 24.95992 46.70605 2045 ft 4 kts 198°
2026-05-05 18:19 24.96012 46.70602 2041 ft 4 kts 146°
2026-05-05 18:20 24.96026 46.70591 2041 ft 1 kts 152°
2026-05-05 18:23 24.96013 46.70600 2044 ft 9 kts 152°
2026-05-05 18:24 24.95936 46.70647 2044 ft 14 kts 150°
2026-05-05 18:24 24.95859 46.70700 2044 ft 11 kts 128°
2026-05-05 18:24 24.95868 46.70779 2041 ft 11 kts 68°
2026-05-05 18:24 24.95915 46.70871 2044 ft 17 kts 59°
2026-05-05 18:25 24.95917 46.70969 2046 ft 13 kts 134°
2026-05-05 18:25 24.95868 46.71008 2044 ft 13 kts 148°
2026-05-05 18:25 24.95757 46.71079 2047 ft 15 kts 150°
2026-05-05 18:25 24.95655 46.71144 2046 ft 20 kts 150°
2026-05-05 18:26 24.95530 46.71222 2048 ft 21 kts 150°
2026-05-05 18:26 24.95398 46.71305 2048 ft 22 kts 150°
2026-05-05 18:26 24.95263 46.71390 2049 ft 23 kts 150°
2026-05-05 18:26 24.95125 46.71476 2046 ft 23 kts 150°
2026-05-05 18:27 24.94982 46.71568 2049 ft 24 kts 150°
2026-05-05 18:27 24.94837 46.71659 2044 ft 24 kts 150°
2026-05-05 18:27 24.94688 46.71755 2049 ft 25 kts 150°
2026-05-05 18:27 24.94537 46.71851 2049 ft 26 kts 150°
2026-05-05 18:28 24.94304 46.72011 2051 ft 11 kts 122°
2026-05-05 18:28 24.94313 46.72088 2053 ft 11 kts 61°
2026-05-05 18:28 24.94356 46.72168 2051 ft 13 kts 59°
2026-05-05 18:29 24.94393 46.72239 2050 ft 6 kts 61°
2026-05-05 18:29 24.94411 46.72256 2053 ft 2 kts 14°
2026-05-05 18:29 24.94460 46.72238 2052 ft 9 kts 333°
2026-05-05 18:29 24.94517 46.72202 2053 ft 14 kts 330°
2026-05-05 18:30 24.94774 46.72042 2053 ft 74 kts 330°
2026-05-05 18:30 24.95393 46.71650 2045 ft 131 kts 330°
2026-05-05 18:30 24.96328 46.71061 2073 ft 175 kts 330°
2026-05-05 18:30 24.97389 46.70370 2734 ft 174 kts 329°
2026-05-05 18:31 24.98460 46.69723 3316 ft 181 kts 336°
2026-05-05 18:31 24.99693 46.69266 3629 ft 197 kts 347°
2026-05-05 18:31 25.01100 46.68856 3882 ft 218 kts 344°
2026-05-05 18:31 25.02618 46.68354 4182 ft 239 kts 342°
2026-05-05 18:32 25.04255 46.67736 4519 ft 257 kts 339°
2026-05-05 18:32 25.05942 46.67015 5020 ft 266 kts 338°
2026-05-05 18:32 25.07682 46.66279 5641 ft 270 kts 339°
2026-05-05 18:32 25.09537 46.65831 6234 ft 275 kts 358°
2026-05-05 18:33 25.11422 46.66188 6830 ft 280 kts 16°
2026-05-05 18:33 25.13302 46.66876 7456 ft 284 kts 18°
2026-05-05 18:33 25.15164 46.67597 8106 ft 287 kts 18°
2026-05-05 18:33 25.17001 46.68524 8771 ft 292 kts 32°
2026-05-05 18:34 25.18417 46.70100 9454 ft 296 kts 58°
2026-05-05 18:34 25.19091 46.72255 10117 ft 300 kts 83°
2026-05-05 18:34 25.19187 46.74591 10506 ft 316 kts 90°
2026-05-05 18:34 25.19158 46.77094 10802 ft 333 kts 91°
2026-05-05 18:35 25.19126 46.79718 11089 ft 350 kts 91°
2026-05-05 18:35 25.19106 46.82438 11364 ft 364 kts 91°
2026-05-05 18:35 25.19066 46.85262 11794 ft 372 kts 94°
2026-05-05 18:35 25.18582 46.88068 12332 ft 375 kts 110°
2026-05-05 18:36 25.17464 46.90704 12962 ft 376 kts 119°
2026-05-05 18:36 25.16198 46.93225 13619 ft 379 kts 120°
2026-05-05 18:36 25.14912 46.95754 14158 ft 382 kts 120°
2026-05-05 18:36 25.13599 46.98347 14622 ft 388 kts 121°
2026-05-05 18:37 25.12262 47.00995 14995 ft 397 kts 121°
2026-05-05 18:37 25.10931 47.03642 15514 ft 400 kts 121°
2026-05-05 18:37 25.09564 47.06362 16027 ft 404 kts 121°
2026-05-05 18:37 25.08199 47.09079 16475 ft 411 kts 121°
2026-05-05 18:38 25.06800 47.11862 17027 ft 414 kts 121°
2026-05-05 18:38 25.05410 47.14629 17580 ft 417 kts 121°
2026-05-05 18:38 25.03994 47.17446 18131 ft 420 kts 121°
2026-05-05 18:38 25.02571 47.20273 18589 ft 425 kts 121°
2026-05-05 18:39 25.01126 47.23144 19066 ft 428 kts 121°
2026-05-05 18:39 24.99687 47.26001 19560 ft 431 kts 121°
2026-05-05 18:39 24.98215 47.28919 20061 ft 435 kts 122°
2026-05-05 18:39 24.96755 47.31816 20557 ft 438 kts 122°
2026-05-05 18:40 24.95257 47.34783 21051 ft 442 kts 121°
2026-05-05 18:40 24.93764 47.37739 21524 ft 446 kts 122°
2026-05-05 18:40 24.92108 47.40653 22001 ft 446 kts 130°
2026-05-05 18:40 24.90044 47.43161 22475 ft 446 kts 139°
2026-05-05 18:41 24.87785 47.45558 22966 ft 449 kts 140°
2026-05-05 18:41 24.85514 47.47930 23450 ft 452 kts 140°
2026-05-05 18:41 24.83234 47.50314 23840 ft 456 kts 140°
2026-05-05 18:41 24.80940 47.52718 24227 ft 460 kts 140°
2026-05-05 18:42 24.78601 47.55173 24656 ft 464 kts 140°
2026-05-05 18:42 24.76264 47.57627 25059 ft 467 kts 140°
2026-05-05 18:42 24.73894 47.60116 25469 ft 471 kts 140°
2026-05-05 18:42 24.71514 47.62614 25895 ft 475 kts 140°
2026-05-05 18:43 24.69124 47.65122 26311 ft 479 kts 140°
2026-05-05 18:43 24.66695 47.67670 26716 ft 483 kts 140°
2026-05-05 18:43 24.64273 47.70209 27118 ft 486 kts 141°
2026-05-05 18:43 24.61797 47.72803 27523 ft 490 kts 141°
2026-05-05 18:44 24.59345 47.75373 27929 ft 494 kts 141°
2026-05-05 18:44 24.56979 47.78134 28311 ft 502 kts 133°
2026-05-05 18:44 24.55000 47.81354 28705 ft 512 kts 122°
2026-05-05 18:44 24.53495 47.84958 29076 ft 519 kts 115°
2026-05-05 18:45 24.52202 47.88644 29430 ft 524 kts 113°
2026-05-05 18:45 24.50974 47.92451 29782 ft 528 kts 112°
2026-05-05 18:45 24.49784 47.96258 30084 ft 532 kts 112°
2026-05-05 18:45 24.48575 48.00125 30415 ft 533 kts 112°
2026-05-05 18:46 24.47365 48.03947 30793 ft 534 kts 112°
2026-05-05 18:46 24.46132 48.07788 31101 ft 536 kts 113°
2026-05-05 18:46 24.44870 48.11671 31391 ft 538 kts 113°
2026-05-05 18:46 24.43596 48.15562 31676 ft 540 kts 113°
2026-05-05 18:47 24.42335 48.19400 31950 ft 542 kts 114°
2026-05-05 18:47 24.41056 48.23283 32245 ft 543 kts 114°
2026-05-05 18:47 24.39763 48.27206 32675 ft 541 kts 114°
2026-05-05 18:47 24.38499 48.31046 33113 ft 538 kts 114°
2026-05-05 18:48 24.37223 48.34915 33531 ft 537 kts 114°
2026-05-05 18:48 24.35951 48.38770 33905 ft 535 kts 114°
2026-05-05 18:48 24.34689 48.42592 34215 ft 535 kts 115°
2026-05-05 18:48 24.33415 48.46445 34505 ft 534 kts 115°
2026-05-05 18:49 24.32160 48.50235 34801 ft 534 kts 115°
2026-05-05 18:49 24.30885 48.54084 35081 ft 533 kts 115°
2026-05-05 18:49 24.29627 48.57874 35328 ft 533 kts 115°
2026-05-05 18:49 24.28352 48.61716 35616 ft 533 kts 115°
2026-05-05 18:50 24.27092 48.65507 35860 ft 533 kts 115°
2026-05-05 18:50 24.25818 48.69337 36159 ft 531 kts 114°
2026-05-05 18:50 24.24554 48.73138 36515 ft 529 kts 114°
2026-05-05 18:50 24.23297 48.76911 36792 ft 529 kts 114°
2026-05-05 18:51 24.22026 48.80723 37024 ft 529 kts 114°
2026-05-05 18:51 24.20773 48.84474 37259 ft 529 kts 114°
2026-05-05 18:51 24.19725 48.87580 37443 ft 528 kts 119°
2026-05-05 18:51 24.18385 48.91278 37412 ft 524 kts 120°
2026-05-05 18:52 24.16984 48.94981 36934 ft 525 kts 121°
2026-05-05 18:52 24.15555 48.98623 36417 ft 527 kts 121°
2026-05-05 18:52 24.14112 49.02313 36123 ft 523 kts 121°
2026-05-05 18:52 24.12694 49.05981 35896 ft 529 kts 120°
2026-05-05 18:53 24.11269 49.09723 35762 ft 528 kts 120°
2026-05-05 18:53 24.09876 49.13445 35913 ft 526 kts 119°
2026-05-05 18:53 24.08517 49.17119 36105 ft 525 kts 119°
2026-05-05 18:53 24.07142 49.20853 36234 ft 525 kts 119°
2026-05-05 18:54 24.05775 49.24578 36360 ft 525 kts 119°
2026-05-05 18:54 24.04422 49.28265 36498 ft 525 kts 119°
2026-05-05 18:54 24.03070 49.31947 36620 ft 525 kts 119°
2026-05-05 18:54 24.01675 49.35680 36671 ft 526 kts 120°
2026-05-05 18:55 23.98929 49.43089 36902 ft 526 kts 119°
2026-05-05 18:55 23.97585 49.46763 37056 ft 526 kts 119°
2026-05-05 18:55 23.96217 49.50498 37190 ft 525 kts 119°
2026-05-05 18:56 23.94853 49.54210 37311 ft 526 kts 119°
2026-05-05 18:56 23.93486 49.57912 37254 ft 530 kts 119°
2026-05-05 18:56 23.91374 49.63617 37399 ft 530 kts 119°
2026-05-05 18:57 23.89980 49.67375 37564 ft 529 kts 119°
2026-05-05 18:57 23.88608 49.71072 37680 ft 529 kts 119°
2026-05-05 18:57 23.87215 49.74822 37792 ft 529 kts 119°
2026-05-05 18:57 23.85827 49.78555 37964 ft 527 kts 119°
2026-05-05 18:58 23.84458 49.82236 38114 ft 527 kts 119°
2026-05-05 18:58 23.83086 49.85921 38238 ft 526 kts 119°
2026-05-05 18:58 23.81695 49.89652 38339 ft 526 kts 119°
2026-05-05 18:58 23.80328 49.93317 38439 ft 526 kts 119°
2026-05-05 18:59 23.77563 50.00718 38659 ft 525 kts 119°
2026-05-05 18:59 23.76175 50.04431 38787 ft 524 kts 119°
2026-05-05 18:59 23.74806 50.08088 38893 ft 523 kts 119°
2026-05-05 19:00 23.72518 50.14193 39069 ft 521 kts 119°
2026-05-05 19:00 23.70688 50.19070 39245 ft 520 kts 119°
2026-05-05 19:00 23.69322 50.22706 39314 ft 520 kts 119°
2026-05-05 19:01 23.66572 50.30011 39460 ft 520 kts 119°
2026-05-05 19:01 23.63826 50.37298 39615 ft 519 kts 119°
2026-05-05 19:02 23.61073 50.44588 39745 ft 519 kts 119°
2026-05-05 19:02 23.58336 50.51828 39946 ft 516 kts 119°
2026-05-05 19:03 23.55594 50.59071 40094 ft 516 kts 119°
2026-05-05 19:03 23.52855 50.66286 40199 ft 516 kts 119°
2026-05-05 19:04 23.50105 50.73522 40298 ft 516 kts 119°
2026-05-05 19:04 23.47375 50.80690 40396 ft 515 kts 119°
2026-05-05 19:05 23.44627 50.87898 40597 ft 513 kts 119°
2026-05-05 19:05 23.41892 50.95062 40685 ft 513 kts 119°
2026-05-05 19:06 23.39152 51.02222 40768 ft 513 kts 119°
2026-05-05 19:06 23.36865 51.08189 40794 ft 513 kts 119°
2026-05-05 19:07 23.34108 51.15371 40793 ft 512 kts 119°
2026-05-05 19:07 23.31359 51.22520 40791 ft 512 kts 119°
2026-05-05 19:08 23.28608 51.29664 40791 ft 511 kts 119°
2026-05-05 19:08 23.25876 51.36747 40789 ft 511 kts 119°
2026-05-05 19:09 23.23125 51.43866 40791 ft 511 kts 119°
2026-05-05 19:09 23.20362 51.51014 40791 ft 511 kts 119°
2026-05-05 19:10 23.17612 51.58102 40784 ft 511 kts 119°
2026-05-05 19:10 23.14841 51.65231 40790 ft 509 kts 119°
2026-05-05 19:11 23.12092 51.72297 40790 ft 509 kts 119°
2026-05-05 19:11 23.09327 51.79399 40790 ft 509 kts 119°
2026-05-05 19:12 23.06574 51.86456 40791 ft 509 kts 119°
2026-05-05 19:12 23.03815 51.93517 40793 ft 509 kts 119°
2026-05-05 19:13 23.01049 52.00585 40787 ft 509 kts 119°
2026-05-05 19:13 22.98278 52.07657 40787 ft 509 kts 119°
2026-05-05 19:14 22.95502 52.14729 40790 ft 510 kts 119°
2026-05-05 19:14 22.92704 52.21843 40790 ft 510 kts 119°
2026-05-05 19:15 22.89939 52.28866 40785 ft 510 kts 120°
2026-05-05 19:15 22.87153 52.35932 40787 ft 509 kts 119°
2026-05-05 19:16 22.84363 52.42995 40790 ft 508 kts 119°
2026-05-05 19:16 22.82277 52.50303 40788 ft 515 kts 104°
2026-05-05 19:17 22.81747 52.58096 40788 ft 517 kts 97°
2026-05-05 19:17 22.81548 52.65868 40790 ft 518 kts 96°
2026-05-05 19:18 22.81388 52.73691 40789 ft 517 kts 96°
2026-05-05 19:18 22.81203 52.81450 40789 ft 517 kts 97°
2026-05-05 19:19 22.80994 52.89254 40786 ft 518 kts 97°
2026-05-05 19:19 22.80777 52.97070 40786 ft 518 kts 97°
2026-05-05 19:20 22.80557 53.04819 40783 ft 517 kts 97°
2026-05-05 19:20 22.80333 53.12620 40784 ft 516 kts 97°
2026-05-05 19:21 22.80107 53.20402 40786 ft 516 kts 97°
2026-05-05 19:21 22.79877 53.28179 40782 ft 516 kts 97°
2026-05-05 19:22 22.79645 53.35921 40784 ft 517 kts 97°
2026-05-05 19:22 22.79407 53.43719 40781 ft 517 kts 97°
2026-05-05 19:23 22.79166 53.51519 40784 ft 517 kts 97°
2026-05-05 19:23 22.78922 53.59275 40783 ft 517 kts 97°
2026-05-05 19:24 22.78673 53.67078 40783 ft 517 kts 97°
2026-05-05 19:24 22.78421 53.74842 40779 ft 517 kts 97°
2026-05-05 19:25 22.78165 53.82607 40790 ft 517 kts 97°
2026-05-05 19:25 22.77904 53.90410 40777 ft 517 kts 97°
2026-05-05 19:26 22.77760 53.98220 40768 ft 517 kts 91°
2026-05-05 19:26 22.78877 54.05905 40778 ft 520 kts 83°
2026-05-05 19:27 22.80406 54.13590 40780 ft 520 kts 82°
2026-05-05 19:27 22.81982 54.21191 40776 ft 520 kts 82°
2026-05-05 19:28 22.83559 54.28865 40778 ft 520 kts 82°
2026-05-05 19:28 22.85107 54.36503 40787 ft 520 kts 82°
2026-05-05 19:29 22.86645 54.44138 40786 ft 520 kts 82°
2026-05-05 19:29 22.88188 54.51819 40777 ft 520 kts 82°
2026-05-05 19:30 22.89716 54.59441 40783 ft 520 kts 82°
2026-05-05 19:30 22.91258 54.67152 40776 ft 521 kts 82°
2026-05-05 19:31 22.92787 54.74815 40769 ft 521 kts 82°
2026-05-05 19:31 22.94311 54.82477 40765 ft 521 kts 82°
2026-05-05 19:32 22.95842 54.90190 40785 ft 521 kts 82°
2026-05-05 19:32 22.97357 54.97852 40780 ft 521 kts 82°
2026-05-05 19:33 22.98877 55.05552 40776 ft 521 kts 82°
2026-05-05 19:33 23.00531 55.13182 40773 ft 522 kts 75°
2026-05-05 19:34 23.03825 55.20198 40797 ft 522 kts 55°
2026-05-05 19:34 23.06229 55.23142 40780 ft 521 kts 44°
2026-05-05 19:35 23.12203 55.27406 40793 ft 515 kts 23°
2026-05-05 19:35 23.15597 55.28621 40788 ft 511 kts 12°
2026-05-05 19:35 23.19060 55.29497 40803 ft 510 kts 15°
2026-05-05 19:36 23.25887 55.31442 40788 ft 509 kts 14°
2026-05-05 19:36 23.32751 55.33410 40790 ft 509 kts 15°
2026-05-05 19:37 23.39580 55.35411 40795 ft 509 kts 15°
2026-05-05 19:37 23.46412 55.37432 40795 ft 509 kts 15°
2026-05-05 19:38 23.53267 55.39466 40794 ft 509 kts 15°
2026-05-05 19:38 23.60073 55.41487 40799 ft 509 kts 15°
2026-05-05 19:39 23.66915 55.43513 40245 ft 505 kts 15°
2026-05-05 19:39 23.70328 55.44525 39418 ft 508 kts 15°
2026-05-05 19:39 23.73726 55.45535 38633 ft 511 kts 15°
2026-05-05 19:39 23.77172 55.46563 37794 ft 512 kts 15°
2026-05-05 19:40 23.80611 55.47592 37094 ft 510 kts 15°
2026-05-05 19:40 23.83987 55.48606 36423 ft 508 kts 15°
2026-05-05 19:40 23.87401 55.49635 35730 ft 507 kts 15°
2026-05-05 19:40 23.90803 55.50658 35022 ft 506 kts 15°
2026-05-05 19:41 23.94205 55.51678 34243 ft 508 kts 15°
2026-05-05 19:41 23.97619 55.52751 33411 ft 511 kts 19°
2026-05-05 19:41 24.00866 55.54335 32507 ft 517 kts 30°
2026-05-05 19:41 24.03786 55.56585 31619 ft 522 kts 39°
2026-05-05 19:42 24.06577 55.59142 30734 ft 523 kts 41°
2026-05-05 19:42 24.09304 55.61802 29822 ft 525 kts 42°
2026-05-05 19:42 24.12011 55.64507 28819 ft 525 kts 42°
2026-05-05 19:42 24.14691 55.67197 28182 ft 518 kts 42°
2026-05-05 19:43 24.17300 55.69813 27569 ft 511 kts 42°
2026-05-05 19:43 24.19907 55.72420 26920 ft 505 kts 42°
2026-05-05 19:43 24.22492 55.74997 26291 ft 499 kts 42°
2026-05-05 19:43 24.25053 55.77545 25657 ft 494 kts 42°
2026-05-05 19:44 24.27582 55.80056 25050 ft 488 kts 42°
2026-05-05 19:44 24.30099 55.82556 24416 ft 483 kts 43°
2026-05-05 19:44 24.32576 55.85017 23825 ft 477 kts 43°
2026-05-05 19:44 24.34993 55.87419 23199 ft 472 kts 43°
2026-05-05 19:45 24.37420 55.89833 22551 ft 466 kts 43°
2026-05-05 19:45 24.39806 55.92210 21954 ft 460 kts 43°
2026-05-05 19:45 24.42171 55.94566 21349 ft 454 kts 43°
2026-05-05 19:45 24.44486 55.96876 20756 ft 448 kts 43°
2026-05-05 19:46 24.46788 55.99174 20169 ft 443 kts 43°
2026-05-05 19:46 24.49057 56.01441 19588 ft 439 kts 43°
2026-05-05 19:46 24.51304 56.03684 18979 ft 435 kts 43°
2026-05-05 19:46 24.53507 56.05884 18389 ft 431 kts 43°
2026-05-05 19:47 24.55722 56.08098 17727 ft 427 kts 43°
2026-05-05 19:47 24.57937 56.10244 17080 ft 421 kts 39°
2026-05-05 19:47 24.60404 56.11932 16478 ft 414 kts 26°
2026-05-05 19:47 24.63112 56.12968 15901 ft 409 kts 17°
2026-05-05 19:48 24.65834 56.13688 15311 ft 404 kts 13°
2026-05-05 19:48 24.68591 56.14259 14715 ft 401 kts 11°
2026-05-05 19:48 24.71312 56.14742 14252 ft 394 kts 10°
2026-05-05 19:48 24.73996 56.15197 14067 ft 378 kts 11°
2026-05-05 19:49 24.76514 56.15626 13945 ft 360 kts
2026-05-05 19:49 24.78156 56.15726 13852 ft 348 kts
2026-05-05 19:49 24.81213 56.15050 13699 ft 326 kts 341°
2026-05-05 19:49 24.83238 56.14108 13570 ft 312 kts 338°
2026-05-05 19:50 24.85190 56.13134 13402 ft 299 kts 338°
2026-05-05 19:50 24.87025 56.12212 13284 ft 286 kts 338°
2026-05-05 19:50 24.88813 56.11313 13134 ft 276 kts 338°
2026-05-05 19:50 24.90529 56.10453 13010 ft 267 kts 338°
2026-05-05 19:51 24.92216 56.09609 12815 ft 264 kts 338°
2026-05-05 19:51 24.93939 56.08755 12671 ft 281 kts 338°
2026-05-05 19:51 24.95733 56.07875 12593 ft 284 kts 339°
2026-05-05 19:51 24.97454 56.06837 12131 ft 284 kts 323°
2026-05-05 19:52 24.98887 56.05326 11819 ft 284 kts 315°
2026-05-05 19:52 24.99772 56.04257 11650 ft 283 kts 314°
2026-05-05 19:52 25.01516 56.02111 11355 ft 281 kts 314°
2026-05-05 19:52 25.02812 56.00517 11143 ft 280 kts 314°
2026-05-05 19:53 25.04115 55.98918 10935 ft 279 kts 314°
2026-05-05 19:53 25.04977 55.97860 10799 ft 278 kts 314°
2026-05-05 19:53 25.06158 55.96179 10633 ft 270 kts 303°
2026-05-05 19:53 25.06860 55.94347 10177 ft 258 kts 285°
2026-05-05 19:54 25.07195 55.92419 9660 ft 252 kts 281°
2026-05-05 19:54 25.07440 55.90504 9041 ft 249 kts 279°
2026-05-05 19:54 25.07658 55.88626 8412 ft 248 kts 279°
2026-05-05 19:54 25.07868 55.86758 7810 ft 246 kts 279°
2026-05-05 19:55 25.08076 55.84883 7244 ft 246 kts 279°
2026-05-05 19:55 25.08287 55.83005 6910 ft 243 kts 279°
2026-05-05 19:55 25.08487 55.81185 6408 ft 239 kts 279°
2026-05-05 19:55 25.08684 55.79362 6002 ft 239 kts 279°
2026-05-05 19:56 25.08877 55.77582 5798 ft 231 kts 279°
2026-05-05 19:56 25.09062 55.75849 5633 ft 221 kts 279°
2026-05-05 19:56 25.09235 55.74205 5407 ft 216 kts 279°
2026-05-05 19:56 25.09406 55.72564 5229 ft 213 kts 280°
2026-05-05 19:57 25.09577 55.70949 5098 ft 214 kts 281°
2026-05-05 19:57 25.09753 55.69304 4992 ft 214 kts 281°
2026-05-05 19:57 25.09927 55.67683 4867 ft 214 kts 281°
2026-05-05 19:57 25.10103 55.66039 4747 ft 214 kts 281°
2026-05-05 19:58 25.10285 55.64428 4640 ft 213 kts 282°
2026-05-05 19:58 25.10739 55.62887 4525 ft 209 kts 302°
2026-05-05 19:58 25.11493 55.61528 4329 ft 207 kts 307°
2026-05-05 19:58 25.12216 55.60182 4108 ft 200 kts 303°
2026-05-05 19:59 25.12908 55.58858 3845 ft 197 kts 305°
2026-05-05 19:59 25.13613 55.57578 3586 ft 192 kts 306°
2026-05-05 19:59 25.14297 55.56344 3325 ft 188 kts 306°
2026-05-05 19:59 25.14966 55.55129 3081 ft 180 kts 306°
2026-05-05 20:00 25.15613 55.53957 2860 ft 178 kts 306°
2026-05-05 20:00 25.16253 55.52804 2634 ft 178 kts 306°
2026-05-05 20:00 25.16905 55.51629 2423 ft 178 kts 306°
2026-05-05 20:00 25.17542 55.50478 2201 ft 177 kts 306°
2026-05-05 20:01 25.18189 55.49309 1971 ft 178 kts 307°
2026-05-05 20:01 25.18842 55.48133 1751 ft 179 kts 306°
2026-05-05 20:01 25.19488 55.46964 1526 ft 179 kts 306°
2026-05-05 20:01 25.20141 55.45780 1299 ft 179 kts 306°
2026-05-05 20:02 25.20763 55.44645 1064 ft 169 kts 306°
2026-05-05 20:02 25.21361 55.43555 878 ft 161 kts 306°
2026-05-05 20:02 25.21921 55.42522 677 ft 154 kts 302°
2026-05-05 20:02 25.22459 55.41537 483 ft 147 kts 303°
2026-05-05 20:03 25.22993 55.40571 305 ft 146 kts 303°
2026-05-05 20:03 25.23508 55.39626 110 ft 145 kts 304°
2026-05-05 20:03 25.24034 55.38689 30 ft 129 kts 301°
2026-05-05 20:03 25.24413 55.38005 31 ft 81 kts 302°
2026-05-05 20:04 25.24622 55.37629 29 ft 33 kts 301°
2026-05-05 20:04 25.24708 55.37475 28 ft 28 kts 301°
2026-05-05 20:04 25.24779 55.37242 30 ft 32 kts 274°
2026-05-05 20:04 25.24782 55.37027 28 ft 24 kts 271°
2026-05-05 20:05 25.24832 55.36874 28 ft 18 kts 302°
2026-05-05 20:05 25.24870 55.36741 28 ft 19 kts 282°
2026-05-05 20:05 25.24920 55.36609 28 ft 19 kts 301°
2026-05-05 20:05 25.24996 55.36479 28 ft 21 kts 303°
2026-05-05 20:06 25.25076 55.36338 28 ft 23 kts 302°
2026-05-05 20:06 25.25157 55.36194 28 ft 20 kts 302°
2026-05-05 20:06 25.25226 55.36071 28 ft 12 kts 302°
2026-05-05 20:06 25.25233 55.36035 28 ft 1 kts 231°
2026-05-05 20:07 25.25214 55.36012 27 ft 12 kts 227°
2026-05-05 20:07 25.25133 55.35955 27 ft 13 kts 212°
2026-05-05 20:07 25.25091 55.35925 27 ft 0 kts 212°
2026-05-05 20:07 25.25082 55.35919 27 ft 0 kts 212°
2026-05-05 20:08 25.25080 55.35917 27 ft 0 kts 212°